Tracking 20037 objects as of 20-Nov-2019
Live streaming from Space Station
objects crossing your sky now

COSMOS 507

Track COSMOS 507 now!
10-day predictions
COSMOS 507 is classified as:


NORAD ID: 6120
Int'l Code: 1972-057D
Perigee: 1,417.9 km
Apogee: 1,503.6 km
Inclination: 74.0 °
Period: 115.0 minutes
Semi major axis: 7831 km
RCS: 0.7026 m2 (medium)
Launch date: July 20, 1972
Source: Commonwealth of Independent States (former USSR) (CIS)
Launch site: PLESETSK MISSILE AND SPACE COMPLEX (PKMTR)
aabbcc
Your satellite tracking list
Your tracking list is empty




NASA's NSSDC Master Catalog

Two Line Element Set (TLE):
1  6120U 72057D   19323.71465038 -.00000019 +00000-0 -15325-4 0  9994
2  6120 074.0257 175.3311 0054682 273.8776 148.8535 12.52612341164240
Source of the keplerian elements: AFSPC